Powrót do katalogu

STARLINK-31160

AktywnyŁącznośćVLEO
NORAD 58749·PAYLOAD·🇺🇸 United States

Wystrzelony Jan 7, 2024 z Cape Canaveral Space Force Station

Loading…

Następne Przeloty (najbliższe 24 godziny)

TLE

ŚwieżeSource: CelesTrak SupGP

Epoka: Sep 15, 2026, 01:44 UTC

1 58749C 24005X   26258.07270833 -.00019075  00000+0 -69094-3 0  2589
2 58749  42.9998 230.4679 0001325 260.7512 102.4848 15.27585287    19

Śledź STARLINK-31160 w czasie rzeczywistym z AllMySat

Download on the App Store